When you browse on this site, cookies collect data to enhance your experience and personalize the content and advertising you see.
Visit our Privacy Policy to learn more. By continuing to use the site, you agree to this use of cookies and data.
  • In Hungary
  • List of Countries
  • For 7 days
  • Water Temperature
  • Weather Map
  • News
  • Weather Widgets
  • user-avatar
    Login

    Hourly Weather Kirovskoe

    Today, 20 October, Sunday

    Time Temperature Precipitation Wind Pressure Humidity
    00:00 -1°C° 0 mm 3 mps 758 mmHg 71%
    01:00 -1°C° 0 mm 3 mps 758 mmHg 71%
    02:00 -2°C° 0 mm 3 mps 758 mmHg 70%
    03:00 -2°C° 0 mm 3 mps 758 mmHg 69%
    04:00 -2°C° 0 mm 2 mps 759 mmHg 72%
    05:00 -2°C° 0 mm 2 mps 759 mmHg 70%
    06:00 -2°C° 0 mm 2 mps 759 mmHg 69%
    07:00 -2°C° 0 mm 2 mps 760 mmHg 68%
    08:00 -1°C° 0 mm 3 mps 760 mmHg 64%
    09:00 0°C° 0 mm 3 mps 760 mmHg 60%
    10:00 +1°C° 0 mm 3 mps 760 mmHg 56%
    11:00 +1°C° 0 mm 3 mps 760 mmHg 55%
    12:00 +2°C° 0 mm 3 mps 760 mmHg 53%
    13:00 +3°C° 0 mm 3 mps 759 mmHg 51%
    14:00 +2°C° 0 mm 3 mps 759 mmHg 54%
    15:00 +2°C° 0 mm 3 mps 759 mmHg 57%
    16:00 +3°C° 0 mm 2 mps 759 mmHg 62%
    17:00 +2°C° 0 mm 2 mps 759 mmHg 64%
    18:00 +2°C° 0 mm 2 mps 759 mmHg 67%
    19:00 +2°C° 0 mm 2 mps 759 mmHg 69%
    20:00 +2°C° 0 mm 2 mps 759 mmHg 69%
    21:00 +1°C° 0 mm 3 mps 759 mmHg 69%
    22:00 +1°C° 0 mm 3 mps 759 mmHg 69%
    23:00 0°C° 0 mm 4 mps 759 mmHg 67%

    Tomorrow, 21 October, Monday

    Time Temperature Precipitation Wind Pressure Humidity
    00:00 0°C° 0 mm 4 mps 759 mmHg 65%
    01:00 0°C° 0 mm 5 mps 759 mmHg 64%
    02:00 -1°C° 0 mm 5 mps 759 mmHg 65%
    03:00 -1°C° 0 mm 5 mps 758 mmHg 66%
    04:00 -2°C° 0 mm 5 mps 758 mmHg 66%
    05:00 -2°C° 0 mm 5 mps 758 mmHg 66%
    06:00 -1°C° 0 mm 5 mps 758 mmHg 65%
    07:00 -2°C° 0 mm 6 mps 758 mmHg 64%
    08:00 -2°C° 0.1 mm 6 mps 758 mmHg 66%
    09:00 -2°C° 0.1 mm 6 mps 757 mmHg 67%
    10:00 -2°C° 0.1 mm 6 mps 757 mmHg 69%
    11:00 -2°C° 0.4 mm 6 mps 757 mmHg 72%
    12:00 -2°C° 0.4 mm 6 mps 756 mmHg 74%
    13:00 -2°C° 0.4 mm 6 mps 756 mmHg 77%
    14:00 -1°C° 0.9 mm 6 mps 756 mmHg 79%
    15:00 -1°C° 0.9 mm 6 mps 756 mmHg 80%
    16:00 0°C° 0.9 mm 5 mps 756 mmHg 82%
    17:00 0°C° 0.4 mm 5 mps 755 mmHg 82%
    18:00 +1°C° 0.4 mm 5 mps 755 mmHg 82%
    19:00 +1°C° 0.4 mm 6 mps 755 mmHg 81%
    20:00 +1°C° 0.1 mm 6 mps 754 mmHg 79%
    21:00 +1°C° 0.1 mm 6 mps 754 mmHg 76%
    22:00 +2°C° 0.1 mm 6 mps 753 mmHg 73%
    23:00 +2°C° 0 mm 7 mps 753 mmHg 73%

    Day after tomorrow, 22 October, Tuesday

    Time Temperature Precipitation Wind Pressure Humidity
    00:00 +2°C° 0 mm 7 mps 752 mmHg 73%
    01:00 +2°C° 0 mm 7 mps 751 mmHg 73%
    02:00 +2°C° 0 mm 7 mps 751 mmHg 73%
    03:00 +1°C° 0 mm 8 mps 750 mmHg 73%
    04:00 +1°C° 0 mm 8 mps 750 mmHg 73%
    05:00 +1°C° 0.2 mm 8 mps 749 mmHg 75%
    06:00 +1°C° 0.2 mm 8 mps 749 mmHg 77%
    07:00 +2°C° 0.2 mm 8 mps 748 mmHg 79%
    08:00 +3°C° 1.4 mm 7 mps 748 mmHg 83%
    09:00 +3°C° 1.4 mm 7 mps 748 mmHg 86%
    10:00 +3°C° 1.4 mm 7 mps 748 mmHg 90%
    11:00 +3°C° 0.7 mm 7 mps 748 mmHg 90%
    12:00 +4°C° 0.7 mm 6 mps 748 mmHg 91%
    13:00 +4°C° 0.7 mm 6 mps 748 mmHg 91%
    14:00 +5°C° 0 mm 5 mps 748 mmHg 92%
    15:00 +6°C° 0 mm 4 mps 748 mmHg 92%
    16:00 +6°C° 0 mm 4 mps 748 mmHg 93%
    17:00 +7°C° 0 mm 3 mps 749 mmHg 90%
    18:00 +5°C° 0 mm 3 mps 749 mmHg 88%
    19:00 +5°C° 0 mm 3 mps 749 mmHg 86%
    20:00 +4°C° 0 mm 3 mps 749 mmHg 83%
    21:00 +4°C° 0 mm 3 mps 750 mmHg 80%
    22:00 +5°C° 0 mm 2 mps 750 mmHg 78%
    23:00 +5°C° 0 mm 2 mps 750 mmHg 77%

    23 October, Wednesday

    Time Temperature Precipitation Wind Pressure Humidity
    00:00 +5°C° 0 mm 1 mps 750 mmHg 77%
    01:00 +5°C° 0 mm 1 mps 750 mmHg 76%
    02:00 +5°C° 0 mm 1 mps 750 mmHg 78%
    03:00 +4°C° 0 mm 1 mps 751 mmHg 79%
    04:00 +3°C° 0 mm 2 mps 751 mmHg 81%
    05:00 +2°C° 0 mm 2 mps 751 mmHg 82%
    06:00 +1°C° 0 mm 2 mps 751 mmHg 84%
    07:00 +1°C° 0 mm 2 mps 751 mmHg 86%
    08:00 +1°C° 0 mm 2 mps 751 mmHg 80%
    09:00 +3°C° 0 mm 1 mps 751 mmHg 75%
    10:00 +4°C° 0 mm 1 mps 752 mmHg 69%
    11:00 +3°C° 0 mm 2 mps 751 mmHg 68%
    12:00 +4°C° 0 mm 2 mps 751 mmHg 66%
    13:00 +4°C° 0 mm 3 mps 751 mmHg 64%
    14:00 +4°C° 0 mm 3 mps 751 mmHg 66%
    15:00 +4°C° 0 mm 3 mps 750 mmHg 68%
    16:00 +4°C° 0 mm 3 mps 750 mmHg 69%
    17:00 +3°C° 0 mm 3 mps 750 mmHg 72%
    18:00 +2°C° 0 mm 3 mps 750 mmHg 75%
    19:00 +1°C° 0 mm 4 mps 749 mmHg 78%
    20:00 +1°C° 0 mm 4 mps 749 mmHg 79%
    21:00 +3°C° 0 mm 4 mps 749 mmHg 79%
    22:00 +2°C° 0 mm 5 mps 748 mmHg 79%
    23:00 +2°C° 0 mm 5 mps 748 mmHg 83%

    24 October, Thursday

    Time Temperature Precipitation Wind Pressure Humidity
    00:00 +2°C° 0 mm 5 mps 748 mmHg 86%
    01:00 +3°C° 0 mm 5 mps 747 mmHg 89%
    02:00 +4°C° 0.1 mm 4 mps 747 mmHg 90%
    03:00 +4°C° 0.1 mm 4 mps 747 mmHg 92%
    04:00 +5°C° 0.1 mm 4 mps 747 mmHg 94%
    05:00 +5°C° 0 mm 4 mps 747 mmHg 94%
    06:00 +5°C° 0 mm 3 mps 747 mmHg 95%
    07:00 +7°C° 0 mm 3 mps 747 mmHg 96%
    08:00 +7°C° 0 mm 3 mps 748 mmHg 95%
    09:00 +7°C° 0 mm 3 mps 748 mmHg 95%
    10:00 +8°C° 0 mm 3 mps 748 mmHg 94%
    11:00 +8°C° 0 mm 3 mps 749 mmHg 92%
    12:00 +9°C° 0 mm 3 mps 749 mmHg 89%
    13:00 +9°C° 0 mm 3 mps 749 mmHg 86%
    14:00 +9°C° 0.1 mm 3 mps 749 mmHg 86%
    15:00 +9°C° 0.1 mm 2 mps 749 mmHg 85%
    16:00 +9°C° 0.1 mm 2 mps 749 mmHg 85%
    17:00 +8°C° 0 mm 2 mps 750 mmHg 86%
    18:00 +8°C° 0 mm 2 mps 750 mmHg 88%
    19:00 +8°C° 0 mm 2 mps 750 mmHg 90%
    20:00 +8°C° 0 mm 2 mps 750 mmHg 89%
    21:00 +7°C° 0 mm 2 mps 751 mmHg 89%
    22:00 +7°C° 0 mm 2 mps 751 mmHg 88%
    23:00 +7°C° 0 mm 2 mps 751 mmHg 87%

    25 October, Friday

    Time Temperature Precipitation Wind Pressure Humidity
    00:00 +7°C° 0 mm 2 mps 751 mmHg 87%
    01:00 +7°C° 0 mm 2 mps 751 mmHg 86%
    02:00 +6°C° 0 mm 2 mps 751 mmHg 88%
    03:00 +6°C° 0 mm 2 mps 751 mmHg 89%
    04:00 +7°C° 0 mm 1 mps 752 mmHg 91%
    05:00 +6°C° 0 mm 1 mps 752 mmHg 91%
    06:00 +6°C° 0 mm 1 mps 752 mmHg 91%
    07:00 +5°C° 0 mm 1 mps 752 mmHg 92%
    08:00 +6°C° 0 mm 1 mps 752 mmHg 90%
    09:00 +6°C° 0 mm 2 mps 752 mmHg 88%
    10:00 +7°C° 0 mm 2 mps 752 mmHg 86%
    11:00 +8°C° 0 mm 2 mps 752 mmHg 82%
    12:00 +8°C° 0 mm 3 mps 752 mmHg 79%
    13:00 +9°C° 0 mm 3 mps 752 mmHg 75%
    14:00 +9°C° 0 mm 3 mps 752 mmHg 77%
    15:00 +9°C° 0 mm 3 mps 752 mmHg 78%
    16:00 +9°C° 0 mm 2 mps 752 mmHg 80%
    17:00 +8°C° 0 mm 2 mps 752 mmHg 82%
    18:00 +8°C° 0 mm 2 mps 752 mmHg 83%
    19:00 +7°C° 0 mm 2 mps 752 mmHg 85%
    20:00 +7°C° 0 mm 2 mps 752 mmHg 87%
    21:00 +7°C° 0 mm 3 mps 752 mmHg 88%
    22:00 +7°C° 0 mm 3 mps 752 mmHg 89%
    23:00 +7°C° 0 mm 3 mps 752 mmHg 90%
    Show more